Weather History for Newcastle, WY

Change the Weather History Date:

Thursday, May 9, 2013

  Actual Average (KCUT) Record (KCUT)
Temperature  
Mean Temperature 53 °F 46 °F  
Max Temperature 64 °F 59 °F 78 °F (1992)
Min Temperature 42 °F 34 °F 19 °F (1968)
Degree Days  
Heating Degree Days 12 19  
Month to date heating degree days 179  
Since 1 July heating degree days 7829  
Cooling Degree Days 0 0  
Month to date cooling degree days 0  
Year to date cooling degree days 0  
Growing Degree Days 3 (Base 50)    
Moisture  
Dew Point 40 °F    
Average Humidity 63    
Maximum Humidity 93    
Minimum Humidity 32    
Precipitation  
Precipitation 0.17 in 0.09 in 1.56 in (1927)
Month to date precipitation 0.84  
Year to date precipitation 4.83  
Sea Level Pressure  
Sea Level Pressure 30.16 in    
Wind  
Wind Speed 8 mph (SE)    
Max Wind Speed 23 mph    
Max Gust Speed 30 mph    
Visibility 10 miles    
Events Rain , Thunderstorm    
T = Trace of Precipitation, MM = Missing Value Source: NWS Daily Summary

Daily Weather History Graph

Daily Weather History Graph

Search for Another Location

Airport:

Trip Planner

Search our weather history database for the weather conditions in past years. The results will help you decide how hot, cold, wet, or windy it might be!

Date:

Astronomy

May. 09, 2013 Rise Set
Actual Time 5:38 AM MDT 8:09 PM MDT
Civil Twilight 5:05 AM MDT 8:42 PM MDT
Nautical Twilight 4:24 AM MDT 9:23 PM MDT
Astronomical Twilight 3:38 AM MDT 10:10 PM MDT
Moon 5:25 AM MDT (5/9) 8:07 PM MDT (5/9)
Length of Visible Light 15h 37m
Length of Day
14h 31m
Waning Crescent, 0% of the Moon is Illuminated
May 9
Waning Crescent
May 9
New
May 17
First Quarter
May 24
Full
May 31
Last Quarter

Hourly Weather History & Observations

Time (MDT) Temp. Windchill Dew Point Humidity Pressure Visibility Wind Dir Wind Speed Gust Speed Precip Events Conditions
12:15 AM 55.4 °F - 33.8 °F 44% 30.12 in 10.0 mi ENE 17.3 mph - N/A   Clear
12:55 AM 53.6 °F - 32.0 °F 44% 30.12 in 10.0 mi North - - N/A   Clear
1:15 AM 53.6 °F - 32.0 °F 44% 30.11 in 10.0 mi ENE 18.4 mph - N/A   Clear
1:35 AM 53.6 °F - 32.0 °F 44% 30.12 in 10.0 mi ENE 12.7 mph - N/A   Clear
1:55 AM 50.0 °F - 33.8 °F 54% 30.13 in 10.0 mi SSW 10.4 mph - N/A   Clear
2:35 AM 51.8 °F - 32.0 °F 47% 30.14 in 10.0 mi Calm Calm - N/A   Scattered Clouds
3:35 AM 50.0 °F - 33.8 °F 54% 30.15 in 10.0 mi Calm Calm - N/A   Scattered Clouds
4:15 AM 46.4 °F - 33.8 °F 62% 30.15 in 10.0 mi Calm Calm - N/A   Scattered Clouds
6:15 AM 50.0 °F - 35.6 °F 58% 30.16 in 10.0 mi Calm Calm - N/A   Clear
6:55 AM 50.0 °F - 37.4 °F 62% 30.16 in 10.0 mi Calm Calm - N/A   Clear
7:15 AM 50.0 °F - 37.4 °F 62% 30.17 in 10.0 mi Calm Calm - N/A   Clear
8:15 AM 55.4 °F - 37.4 °F 51% 30.19 in 10.0 mi Calm Calm - N/A   Clear
8:35 AM 57.2 °F - 37.4 °F 48% 30.18 in 10.0 mi West 4.6 mph - N/A   Clear
8:55 AM 57.2 °F - 39.2 °F 51% 30.17 in 10.0 mi Calm Calm - N/A   Clear
9:15 AM 59.0 °F - 39.2 °F 48% 30.17 in 10.0 mi SSE 5.8 mph - N/A   Clear
9:35 AM 60.8 °F - 37.4 °F 42% 30.17 in 10.0 mi South 4.6 mph - N/A   Clear
9:55 AM 60.8 °F - 37.4 °F 42% 30.17 in 10.0 mi SSW 3.5 mph - N/A   Clear
10:15 AM 62.6 °F - 35.6 °F 37% 30.17 in 10.0 mi Calm Calm - N/A   Clear
10:35 AM 62.6 °F - 37.4 °F 39% 30.16 in 10.0 mi SSE 5.8 mph - N/A   Scattered Clouds
10:55 AM 62.6 °F - 35.6 °F 37% 30.16 in 10.0 mi SSE 4.6 mph - N/A   Clear
11:15 AM 64.4 °F - 35.6 °F 34% 30.15 in 10.0 mi South 5.8 mph - N/A   Scattered Clouds
11:35 AM 62.6 °F - 35.6 °F 37% 30.15 in 10.0 mi SSW 4.6 mph - N/A   Scattered Clouds
11:55 AM 64.4 °F - 33.8 °F 32% 30.15 in 10.0 mi Calm Calm - N/A   Scattered Clouds
12:15 PM 62.6 °F - 33.8 °F 34% 30.15 in 10.0 mi East 6.9 mph - N/A   Mostly Cloudy
12:35 PM 59.0 °F - 39.2 °F 48% 30.15 in 3.0 mi North - - N/A Thunderstorm Haze
12:55 PM 51.8 °F - 42.8 °F 71% 30.15 in 3.0 mi ENE 18.4 mph 28.8 mph 0.06 in Rain Light Rain
1:15 PM 53.6 °F - 42.8 °F 67% 30.14 in 10.0 mi ENE 16.1 mph - N/A   Mostly Cloudy
1:35 PM 55.4 °F - 42.8 °F 63% 30.15 in 10.0 mi ENE 6.9 mph - N/A Rain Heavy Rain
1:55 PM 55.4 °F - 44.6 °F 67% 30.14 in 10.0 mi North - - 0.03 in   Scattered Clouds
2:15 PM 55.4 °F - 42.8 °F 63% 30.14 in 10.0 mi East 12.7 mph - N/A Rain Light Rain
2:35 PM 55.4 °F - 42.8 °F 63% 30.20 in - WNW 23.0 mph 29.9 mph N/A   Overcast
2:55 PM 46.4 °F 41.9 °F 42.8 °F 87% 30.21 in 2.5 mi NNW 9.2 mph 17.3 mph 0.07 in Rain Heavy Rain
3:15 PM 48.2 °F - 44.6 °F 87% 30.20 in 10.0 mi South 4.6 mph - 0.01 in Rain Light Rain
3:35 PM 48.2 °F - 44.6 °F 87% 30.18 in - ESE 10.4 mph - 0.01 in   Unknown
3:55 PM 48.2 °F - 44.6 °F 87% 30.16 in - ESE 15.0 mph - 0.01 in   Unknown
4:15 PM 51.8 °F - 46.4 °F 82% 30.14 in - ESE 19.6 mph 23.0 mph N/A   Clear
4:35 PM 53.6 °F - 44.6 °F 72% 30.15 in - ESE 17.3 mph - N/A   Clear
4:55 PM 53.6 °F - 42.8 °F 67% 30.15 in - ESE 16.1 mph 19.6 mph N/A   Clear
5:15 PM 53.6 °F - 42.8 °F 67% 30.15 in 10.0 mi ESE 12.7 mph - N/A   Clear
5:35 PM 53.6 °F - 42.8 °F 67% 30.15 in 10.0 mi ESE 11.5 mph - N/A   Clear
5:55 PM 53.6 °F - 42.8 °F 67% 30.15 in 10.0 mi ESE 9.2 mph - N/A   Clear
6:15 PM 53.6 °F - 42.8 °F 67% 30.15 in 10.0 mi SE 8.1 mph - N/A   Clear
6:35 PM 53.6 °F - 42.8 °F 67% 30.15 in 10.0 mi SE 5.8 mph - N/A   Clear
6:55 PM 51.8 °F - 42.8 °F 71% 30.15 in 10.0 mi SSE 4.6 mph - N/A   Clear
7:15 PM 51.8 °F - 44.6 °F 76% 30.16 in 10.0 mi SSE 3.5 mph - N/A   Clear
7:35 PM 51.8 °F - 44.6 °F 76% 30.17 in 10.0 mi Calm Calm - N/A   Clear
7:55 PM 50.0 °F - 42.8 °F 76% 30.17 in 10.0 mi Calm Calm - N/A   Clear
8:15 PM 50.0 °F - 44.6 °F 82% 30.17 in 10.0 mi SSW 3.5 mph - N/A   Clear
8:35 PM 48.2 °F - 44.6 °F 87% 30.18 in 10.0 mi Calm Calm - N/A   Clear
8:55 PM 50.0 °F - 42.8 °F 76% 30.19 in 10.0 mi Calm Calm - N/A   Clear
9:15 PM 46.4 °F 45.2 °F 42.8 °F 87% 30.19 in 10.0 mi ESE 3.5 mph - N/A   Clear
9:55 PM 44.6 °F 42.2 °F 41.0 °F 87% 30.19 in 10.0 mi East 4.6 mph - N/A   Clear
10:15 PM 46.4 °F 43.5 °F 41.0 °F 81% 30.19 in 10.0 mi ESE 5.8 mph - N/A   Clear
10:35 PM 46.4 °F - 41.0 °F 81% 30.19 in 10.0 mi Calm Calm - N/A   Clear
10:55 PM 44.6 °F - 39.2 °F 81% 30.19 in 10.0 mi Calm Calm - N/A   Clear
11:15 PM 42.8 °F - 39.2 °F 87% 30.19 in 10.0 mi Calm Calm - N/A   Clear
11:35 PM 44.6 °F - 41.0 °F 87% 30.20 in 10.0 mi Calm Calm - N/A   Clear
11:55 PM 42.8 °F - 41.0 °F 93% 30.20 in 10.0 mi Calm Calm - N/A   Clear